Flight Track Log - Related Links

Times and Time Zones

All times are in EDT time to prevent confusion due to time zone crossing. See the N654DL flight status page for this flight to view local times or setup timezone preferences in your user account.

Time Position Orientation Groundspeed Altitude Reporting Facility
EDT Latitude Longitude Course Direction KTS MPH feet Rate Location/Type
Wed 06:00:22 PM 42.3667 -70.9833 300° West 191 220 1,100  Level KA90
Wed 06:00:46 PM 42.3667 -70.9500 90° East 160 184 2,300 3,145 Climbing KA90
Wed 06:02:26 PM 42.3911 -70.8264 75° East 282 325 7,600 3,105 Climbing Boston Center
Wed 06:03:00 PM 42.5825 -70.8444 308° West  Level FlightAware Approximate
Wed 06:03:38 PM 42.4528 -70.7686 35° Northeast 263 303 11,200  Level Boston Center
Wed 06:04:00 PM 42.6496 -70.9723 300° West  Level FlightAware Approximate
Wed 06:04:38 PM 42.5414 -70.8481 327° Northwest 232 267 13,300  Level Boston Center
Wed 06:05:00 PM 42.7067 -71.1094 300° West  Level FlightAware Approximate
Wed 06:05:38 PM 42.6119 -70.9758 307° West 299 344 16,500  Level Boston Center
Wed 06:06:38 PM 42.6736 -71.0903 306° West 370 426 18,600 2,300 Climbing Boston Center
Wed 06:07:38 PM 42.7522 -71.2158 310° West 409 471 21,100 2,091 Climbing Boston Center
Wed 06:08:50 PM 42.7956 -71.3761 290° West 437 503 23,200 2,045 Climbing Boston Center
Wed 06:09:50 PM 42.8142 -71.6050 276° West 453 521 25,600 2,200 Climbing Boston Center
Wed 06:10:50 PM 42.8319 -71.7889 278° West 473 544 27,600 2,100 Climbing Boston Center
Wed 06:11:50 PM 42.8497 -71.9728 278° West 486 559 29,800 2,050 Climbing Boston Center
Wed 06:12:50 PM 42.8669 -72.1567 277° West 493 567 31,700 1,700 Climbing Boston Center
Wed 06:13:50 PM 42.8858 -72.3211 279° West 493 567 33,200 1,700 Climbing Boston Center
Wed 06:14:50 PM 42.9006 -72.5081 276° West 498 573 35,100 1,636 Climbing Boston Center
Wed 06:16:02 PM 42.9108 -72.6894 274° West 498 573 36,800 1,455 Climbing Boston Center
Wed 06:17:02 PM 42.9308 -72.9081 277° West 493 567 38,300 1,350 Climbing Boston Center
Wed 06:18:02 PM 42.9486 -73.1094 277° West 493 567 39,500 850 Climbing Boston Center
Wed 06:19:02 PM 42.9661 -73.2914 278° West 493 567 40,000 250 Climbing Boston Center
Wed 06:20:02 PM 42.9731 -73.4617 273° West 474 545 40,000  Level Boston Center
Wed 06:21:02 PM 42.9861 -73.6322 276° West 468 539 40,000  Level Boston Center
Wed 06:22:02 PM 43.0008 -73.8056 277° West 463 533 40,000  Level Boston Center
Wed 06:23:02 PM 43.0131 -73.9847 275° West 469 540 40,000  Level Boston Center
Wed 06:24:02 PM 43.0272 -74.1583 276° West 469 540 40,000  Level Boston Center
Wed 06:25:02 PM 43.0411 -74.3350 276° West 469 540 40,000  Level Boston Center
Wed 06:26:02 PM 43.0528 -74.5086 275° West 463 533 40,000  Level Boston Center
Wed 06:27:02 PM 43.0644 -74.6625 276° West 463 533 40,000  Level Boston Center
Wed 06:28:02 PM 43.0756 -74.8364 275° West 463 533 40,000  Level Boston Center
Wed 06:29:02 PM 43.0883 -75.0131 276° West 463 533 40,000  Level Boston Center
Wed 06:30:02 PM 43.0967 -75.1869 274° West 463 533 40,000  Level Boston Center
Wed 06:31:02 PM 43.1092 -75.3611 276° West 463 533 40,000  Level Boston Center
Wed 06:32:02 PM 43.1192 -75.5322 275° West 463 533 40,000  Level Boston Center
Wed 06:33:58 PM 43.1417 -75.8736 275° West 458 527 40,000  Level Cleveland Center
Wed 06:34:58 PM 43.1528 -76.0436 275° West 458 527 40,000  Level Cleveland Center
Wed 06:35:58 PM 43.1594 -76.2167 273° West 453 521 40,000  Level Cleveland Center
Wed 06:36:58 PM 43.1489 -76.3856 265° West 453 521 40,000  Level Cleveland Center
Wed 06:37:58 PM 43.1319 -76.5544 262° West 453 521 40,000  Level Cleveland Center
Wed 06:38:58 PM 43.1164 -76.7092 262° West 453 521 40,000  Level Cleveland Center
Wed 06:39:58 PM 43.1031 -76.8750 264° West 453 521 40,000  Level Cleveland Center
Wed 06:40:58 PM 43.0875 -77.0408 263° West 447 514 40,000  Level Cleveland Center
Wed 06:41:58 PM 43.0736 -77.2067 264° West 447 514 40,000  Level Cleveland Center
Wed 06:42:58 PM 43.0556 -77.3781 262° West 447 514 40,000  Level Cleveland Center
Wed 06:43:58 PM 43.0414 -77.5408 263° West 447 514 40,000  Level Cleveland Center
Wed 06:44:58 PM 43.0269 -77.7092 263° West 447 514 40,000  Level Cleveland Center
Wed 06:45:58 PM 43.0100 -77.8744 262° West 447 514 40,000  Level Cleveland Center
Wed 06:46:58 PM 42.9911 -78.0600 262° West 453 521 40,000  Level Cleveland Center
Wed 06:47:58 PM 42.9739 -78.2253 262° West 448 516 40,000  Level Cleveland Center
Wed 06:48:58 PM 42.9564 -78.3933 262° West 448 516 40,000  Level Cleveland Center
Wed 06:49:58 PM 42.9386 -78.5611 262° West 448 516 40,000  Level Cleveland Center
Wed 06:50:58 PM 42.9206 -78.7289 262° West 448 516 40,000  Level Cleveland Center
Wed 06:51:58 PM 42.8961 -78.8997 259° West 448 516 40,000  Level Cleveland Center
Wed 06:52:58 PM 42.8714 -79.0647 258° West 448 516 40,000  Level Cleveland Center
Wed 06:53:58 PM 42.8442 -79.2297 257° West 448 516 40,000 -150 Level Cleveland Center
Wed 06:54:58 PM 42.8208 -79.3944 259° West 454 522 39,700 -950 Descending Cleveland Center
Wed 06:55:58 PM 42.7975 -79.5617 259° West 449 517 38,100 -1,550 Descending Cleveland Center
Wed 06:56:58 PM 42.7719 -79.7347 259° West 449 517 36,600 -1,300 Descending Cleveland Center
Wed 06:57:58 PM 42.7500 -79.9075 260° West 456 525 35,500 -1,500 Descending Cleveland Center
Wed 06:58:58 PM 42.7406 -80.0886 266° West 480 552 33,600 -1,250 Descending Cleveland Center
Wed 06:59:58 PM 42.7369 -80.2722 269° West 480 552 33,000 -700 Descending Cleveland Center
Wed 07:00:58 PM 42.7269 -80.4503 266° West 485 558 32,200 -1,000 Descending Cleveland Center
Wed 07:01:58 PM 42.7186 -80.6283 266° West 481 554 31,000 -1,350 Descending Cleveland Center
Wed 07:02:58 PM 42.7100 -80.8119 266° West 481 554 29,500 -1,900 Descending Cleveland Center
Wed 07:03:58 PM 42.6972 -80.9731 264° West 481 554 27,200 -2,000 Descending Cleveland Center
Wed 07:04:58 PM 42.6775 -81.1536 262° West 481 554 25,500 -1,700 Descending Cleveland Center
Wed 07:05:58 PM 42.6578 -81.3228 261° West 468 539 23,800 -1,650 Descending Cleveland Center
Wed 07:06:58 PM 42.6358 -81.4919 260° West 463 533 22,200 -1,600 Descending Cleveland Center
Wed 07:07:58 PM 42.6178 -81.6553 262° West 458 527 20,600 -1,700 Descending Cleveland Center
Wed 07:08:58 PM 42.5975 -81.8158 260° West 452 520 18,800 -1,550 Descending Cleveland Center
Wed 07:09:58 PM 42.5769 -81.9761 260° West 441 507 17,500 -1,400 Descending Cleveland Center
Wed 07:10:58 PM 42.5581 -82.1333 261° West 436 502 16,000 -1,581 Descending Cleveland Center
Wed 07:12:07 PM 42.5344 -82.3303 261° West 401 461 14,100 -1,400 Descending Cleveland Center
Wed 07:12:58 PM 42.5225 -82.4256 260° West 408 470 13,200 -1,135 Descending Cleveland Center
Wed 07:13:58 PM 42.5039 -82.5517 259° West 377 434 12,000 -950 Descending Cleveland Center
Wed 07:14:58 PM 42.4642 -82.6689 245° Southwest 354 407 11,300 -850 Descending Cleveland Center
Wed 07:15:58 PM 42.4269 -82.7717 244° Southwest 326 375 10,300 -1,250 Descending Cleveland Center
Wed 07:16:58 PM 42.3978 -82.8719 249° West 301 346 8,800 -1,450 Descending Cleveland Center
Wed 07:17:58 PM 42.3997 -82.9761 271° West 284 327 7,400 -1,567 Descending Cleveland Center
Wed 07:19:12 PM 42.3883 -83.1189 264° West 270 311 5,300 -1,750 Descending Cleveland Center
Wed 07:19:58 PM 42.3706 -83.1744 247° West 272 313 3,900 -1,967 Descending Cleveland Center
Wed 07:20:13 PM 42.3572 -83.2075 241° Southwest 251 289 3,300 -700 Descending Cleveland Center
Wed 07:20:58 PM 42.3375 -83.2489 237° Southwest 250 288 3,200 -133 Descending Cleveland Center

Login

Don't have an account? Register now (free) for customized features, flight alerts, and more!